"Pseudo-MPEC" for P11dgty

Created 2021 Mar 4 14:07:09 UT using Find_Orb

Click here for an explanation of pseudo-MPECs

 
 Astrometry: 
     P11dgty  C2021 02 12pc?jFA=K9w_c^drum97rdae`;u:c0;@ZX`$%[v*NAstrometrysjF51
     P11dgty  C2021 02 1271.c,wtA_9'redacted;iv=Sclickk^3IDl(Yh3-;WDL?-2Ad/o+F51
     P11dgty  C2021 02 12H/fxb@+S$rWd_[,LB!]fhereM#forM9D7#explanationnBK#/(UF51

Station data:
(F51) Pan-STARRS 1, Haleakala  (N20.707235 W156.255910)  US/Hawaii.
   Observers N. Primak, A. Schultz, S. Watters, J. Thiel, T. Goggia. Measurer
   PS1 Science Consortium. 1.8-m Ritchey-Chrétien + CCD.

Orbital elements:  P11dgty
   Perihelion 2021 Mar 18.731152 +/- 48.8006 TT = 17:32:51 (JD 2459292.231152)
Epoch 2021 Feb 12.0 TT = JDT 2459257.5   Earth MOID: 0.4512   Ma: 0.0950
M 351.80042458 +/- 15.883550        (J2000 ecliptic)          AutoNEOCP
n   0.23608705 +/- 0.237347         Peri.  105.24980 +/- 94.953540
a   2.59271393 +/- 1.73766          Node    59.17355 +/- 42.053197
e   0.4611340 +/- 0.246452          Incl.   10.27677 +/- 5.7961375
P   4.17                   H 22.5   G  0.15   U 11.8  SR
q 1.39712527 +/- 0.5059    Q 3.78830260 +/- 123.275
From 3 observations 2021 Feb. 12 (36.9 min); mean residual 0".06
Residuals in arcseconds: 
210212 F51  .06-  .01-    210212 F51  .12+  .03+    210212 F51  .06-  .01-    

Ephemerides (geocentric):
Date (UTC) HH   RA              Dec         delta   r     elong  mag " sig PA
---- -- -- --  -------------   -----------  ------ ------ -----  --- ---- ---
2021 03 04 14  09 43 38.339   +45 22 13.91  .50276 1.4041 137.5 23.0  31d  28
2021 03 04 15  09 43 39.132   +45 21 49.85  .50280 1.4041 137.5 23.0  31d  28
2021 03 04 16  09 43 39.930   +45 21 25.71  .50284 1.4040 137.5 23.0  31d  28
2021 03 04 17  09 43 40.731   +45 21 01.49  .50289 1.4040 137.5 23.0  31d  28
2021 03 04 18  09 43 41.537   +45 20 37.19  .50293 1.4039 137.4 23.0  31d  28
2021 03 04 19  09 43 42.346   +45 20 12.82  .50298 1.4039 137.4 23.0  31d  28
2021 03 04 20  09 43 43.159   +45 19 48.36  .50302 1.4039 137.4 23.0  31d  28
2021 03 04 21  09 43 43.976   +45 19 23.83  .50307 1.4038 137.4 23.0  31d  28
2021 03 04 22  09 43 44.797   +45 18 59.23  .50311 1.4038 137.3 23.0  31d  28
2021 03 04 23  09 43 45.622   +45 18 34.54  .50315 1.4037 137.3 23.0  31d  27
2021 03 05 00  09 43 46.451   +45 18 09.78  .50320 1.4037 137.3 23.0  31d  27
2021 03 05 01  09 43 47.283   +45 17 44.94  .50324 1.4037 137.3 23.0  31d  27
2021 03 05 02  09 43 48.120   +45 17 20.02  .50329 1.4036 137.3 23.0  31d  27
2021 03 05 03  09 43 48.960   +45 16 55.03  .50333 1.4036 137.2 23.0  31d  27
2021 03 05 04  09 43 49.805   +45 16 29.96  .50338 1.4035 137.2 23.0  31d  27
2021 03 05 05  09 43 50.653   +45 16 04.81  .50343 1.4035 137.2 23.0  31d  27
2021 03 05 06  09 43 51.506   +45 15 39.58  .50347 1.4035 137.2 23.0  31d  27
2021 03 05 07  09 43 52.362   +45 15 14.28  .50352 1.4034 137.2 23.0  31d  27
2021 03 05 08  09 43 53.222   +45 14 48.90  .50356 1.4034 137.1 23.0  31d  27
2021 03 05 09  09 43 54.086   +45 14 23.44  .50361 1.4033 137.1 23.0  31d  27
2021 03 05 10  09 43 54.955   +45 13 57.91  .50366 1.4033 137.1 23.0  31d  27
2021 03 05 11  09 43 55.827   +45 13 32.29  .50370 1.4033 137.1 23.0  31d  27
2021 03 05 12  09 43 56.703   +45 13 06.60  .50375 1.4032 137.0 23.0  31d  27
2021 03 05 13  09 43 57.583   +45 12 40.84  .50380 1.4032 137.0 23.0  31d  27
2021 03 05 14  09 43 58.467   +45 12 14.99  .50384 1.4031 137.0 23.0  31d  27
2021 03 05 15  09 43 59.355   +45 11 49.07  .50389 1.4031 137.0 23.0  31d  27
2021 03 05 16  09 44 00.247   +45 11 23.08  .50394 1.4031 137.0 23.0  31d  27
2021 03 05 17  09 44 01.143   +45 10 57.00  .50399 1.4030 136.9 23.0  31d  27
2021 03 05 18  09 44 02.043   +45 10 30.85  .50404 1.4030 136.9 23.0  31d  27
2021 03 05 19  09 44 02.947   +45 10 04.62  .50408 1.4030 136.9 23.0  31d  27
2021 03 05 20  09 44 03.855   +45 09 38.32  .50413 1.4029 136.9 23.0  31d  27
2021 03 05 21  09 44 04.767   +45 09 11.94  .50418 1.4029 136.9 23.0  31d  27
2021 03 05 22  09 44 05.683   +45 08 45.48  .50423 1.4028 136.8 23.0  31d  27
2021 03 05 23  09 44 06.603   +45 08 18.95  .50428 1.4028 136.8 23.0  31d  27
2021 03 06 00  09 44 07.527   +45 07 52.34  .50433 1.4028 136.8 23.0  31d  27
2021 03 06 01  09 44 08.455   +45 07 25.65  .50437 1.4027 136.8 23.0  31d  27
2021 03 06 02  09 44 09.387   +45 06 58.88  .50442 1.4027 136.7 23.0  31d  27
2021 03 06 03  09 44 10.323   +45 06 32.04  .50447 1.4027 136.7 23.0  31d  27
2021 03 06 04  09 44 11.263   +45 06 05.13  .50452 1.4026 136.7 23.0  31d  27
2021 03 06 05  09 44 12.207   +45 05 38.13  .50457 1.4026 136.7 23.0  31d  27
2021 03 06 06  09 44 13.155   +45 05 11.06  .50462 1.4026 136.7 23.0  31d  27
2021 03 06 07  09 44 14.107   +45 04 43.92  .50467 1.4025 136.6 23.1  31d  27
2021 03 06 08  09 44 15.063   +45 04 16.69  .50472 1.4025 136.6 23.1  31d  27
2021 03 06 09  09 44 16.023   +45 03 49.39  .50477 1.4024 136.6 23.1  31d  27
2021 03 06 10  09 44 16.988   +45 03 22.02  .50482 1.4024 136.6 23.1  31d  27
2021 03 06 11  09 44 17.956   +45 02 54.57  .50487 1.4024 136.6 23.1  31d  27
2021 03 06 12  09 44 18.928   +45 02 27.04  .50492 1.4023 136.5 23.1  31d  27
2021 03 06 13  09 44 19.905   +45 01 59.44  .50498 1.4023 136.5 23.1  31d  27